Starlink 6316

operational
NORAD ID: 57335 Int'l Des: 2023-099 Owner: SPXS Country: US Constellation: starlink
LEOCIRCULAR

Starlink 6316について

説明を読み込み中...

リアルタイム位置

3D地球を読み込み中...

次回通過

高度履歴

Altitude vs Time

uPlot chart will show altitude changes over time

軌道要素

1 57335U 23099H 25258.03711693 -.00000395 00000-0 -14192-4 0 9998
2 57335 43.0048 123.4443 0001167 266.3200 93.7509 15.02533713119698
Epoch: Sep 15, 2025 • Age: 24 hours

現在のステータス

高度 558.9 km
速度 7.59 km/s
衛星直下点 21.27°N, 132.82°E
打ち上げ日 Jul 16, 2023
運用期間 2.1 years
タイプ internet

技術仕様

分類 Payload
質量 305.00 kg
乾燥質量 290.00 kg
総質量 305.00 kg
長さ 0.20 m
直径 2.80 m
スパン 9.00 m
形状 Box + pan
製造者 SPXS
バスタイプ Starlink
フェーズステータス In Orbit
所有者/国 SPXS/US

大規模コンステレーション

Loading constellations...